| time (UTC) | temp C | wind direction | speed KPH | gust KPH | rain 1hr cm | rain 24hr cm | rain mn cm | humidity % | barometer mb |
| 20260507074547 | 11 | 0 | 0.0 | 6.4 | 0.03 | 0.23 | 0.05 | 87 | 1006.5 |
| 20260507073050 | 11 | 123 | 1.6 | 6.4 | 0.00 | 0.20 | 0.03 | 84 | 1006.5 |
| 20260507071600 | 12 | 139 | 1.6 | 6.4 | 0.00 | 0.20 | 0.03 | 83 | 1005.7 |
| 20260507070049 | 12 | 145 | 1.6 | 6.4 | 0.00 | 0.20 | 0.03 | 82 | 1005.8 |
| 20260507064556 | 12 | 135 | 1.6 | 9.7 | 0.00 | 0.20 | 0.03 | 83 | 1005.8 |
| 20260507063051 | 12 | 161 | 3.2 | 11.3 | 0.00 | 0.20 | 0.03 | 88 | 1005.8 |
| 20260507061550 | 13 | 130 | 1.6 | 4.8 | 0.03 | 0.20 | 0.03 | 88 | 1005.6 |
| 20260507060052 | 13 | 130 | 0.0 | 6.4 | 0.03 | 0.20 | 0.03 | 88 | 1005.9 |
| 20260507054550 | 13 | 146 | 0.0 | 11.3 | 0.03 | 0.20 | 0.03 | 88 | 1006.0 |
| 20260507053050 | 13 | 124 | 1.6 | 9.7 | 0.03 | 0.20 | 0.03 | 88 | 1006.2 |
| 20260507051545 | 13 | 161 | 0.0 | 11.3 | 0.00 | 0.18 | 0.00 | 89 | 1005.7 |
| 20260507050045 | 14 | 154 | 1.6 | 9.7 | 0.00 | 0.18 | 0.00 | 92 | 1005.8 |
| 20260507044543 | 14 | 161 | 3.2 | 8.0 | 0.00 | 0.18 | 0.00 | 92 | 1006.0 |
| 20260507043048 | 15 | 156 | 1.6 | 8.0 | 0.00 | 0.18 | 0.00 | 93 | 1005.8 |
| 20260507041558 | 15 | 87 | 0.0 | 3.2 | 0.00 | 0.18 | 0.00 | 94 | 1005.9 |
| 20260507040104 | 15 | 113 | 0.0 | 1.6 | 0.00 | 0.18 | 0.00 | 94 | 1006.1 |
| 20260507034556 | 15 | 155 | 0.0 | 3.2 | 0.00 | 0.18 | 0.18 | 94 | 1006.0 |
| 20260507033045 | 15 | 0 | 0.0 | 11.3 | 0.00 | 0.18 | 0.18 | 93 | 1006.0 |
| 20260507031548 | 15 | 328 | 1.6 | 6.4 | 0.00 | 0.18 | 0.18 | 93 | 1005.6 |
| 20260507030054 | 15 | 0 | 0.0 | 6.4 | 0.00 | 0.18 | 0.18 | 93 | 1005.4 |
| 20260507024548 | 15 | 73 | 1.6 | 6.4 | 0.00 | 0.18 | 0.18 | 94 | 1005.7 |
| 20260507023048 | 14 | 0 | 0.0 | 6.4 | 0.00 | 0.18 | 0.18 | 94 | 1005.6 |
| 20260507021548 | 14 | 89 | 0.0 | 3.2 | 0.00 | 0.18 | 0.18 | 94 | 1005.8 |
| 20260507020053 | 14 | 22 | 1.6 | 4.8 | 0.00 | 0.18 | 0.18 | 94 | 1005.6 |
| 20260507014600 | 14 | 91 | 1.6 | 8.0 | 0.00 | 0.18 | 0.18 | 94 | 1005.6 |
| 20260507013048 | 14 | 108 | 1.6 | 9.7 | 0.00 | 0.18 | 0.18 | 94 | 1005.8 |
| 20260507011557 | 14 | 65 | 1.6 | 8.0 | 0.00 | 0.18 | 0.18 | 94 | 1006.0 |
| 20260507010052 | 14 | 220 | 3.2 | 8.0 | 0.00 | 0.18 | 0.18 | 94 | 1006.1 |
| 20260507004553 | 13 | 110 | 1.6 | 8.0 | 0.03 | 0.18 | 0.18 | 93 | 1006.0 |
| 20260507003052 | 14 | 335 | 1.6 | 9.7 | 0.03 | 0.18 | 0.18 | 93 | 1006.1 |
| 20260507001559 | 14 | 0 | 1.6 | 9.7 | 0.05 | 0.18 | 0.18 | 93 | 1006.0 |
| 20260507000057 | 14 | 71 | 1.6 | 9.7 | 0.08 | 0.18 | 0.18 | 93 | 1005.7 |
| 20260506234555 | 14 | 0 | 0.0 | 9.7 | 0.05 | 0.15 | 0.15 | 93 | 1006.0 |
| 20260506233052 | 14 | 0 | 0.0 | 6.4 | 0.05 | 0.15 | 0.15 | 93 | 1005.7 |
| 20260506231551 | 15 | 318 | 1.6 | 6.4 | 0.03 | 0.13 | 0.13 | 92 | 1005.7 |
| 20260506230048 | 15 | 0 | 1.6 | 8.0 | 0.00 | 0.10 | 0.10 | 92 | 1005.8 |
| 20260506224554 | 15 | 75 | 1.6 | 11.3 | 0.00 | 0.10 | 0.10 | 92 | 1005.9 |
| 20260506223042 | 15 | 343 | 3.2 | 12.9 | 0.03 | 0.10 | 0.10 | 91 | 1006.1 |
| 20260506221549 | 15 | 12 | 3.2 | 12.9 | 0.03 | 0.10 | 0.10 | 91 | 1006.1 |
| 20260506220058 | 15 | 29 | 3.2 | 12.9 | 0.03 | 0.10 | 0.10 | 90 | 1006.2 |
| 20260506214547 | 16 | 79 | 0.0 | 14.5 | 0.03 | 0.10 | 0.10 | 88 | 1006.6 |
| 20260506213052 | 16 | 0 | 1.6 | 11.3 | 0.03 | 0.08 | 0.08 | 87 | 1006.7 |
| 20260506211548 | 16 | 58 | 3.2 | 14.5 | 0.03 | 0.08 | 0.08 | 86 | 1006.5 |
| 20260506210100 | 16 | 320 | 1.6 | 16.1 | 0.03 | 0.08 | 0.08 | 86 | 1006.7 |
| 20260506204554 | 16 | 60 | 3.2 | 17.7 | 0.05 | 0.08 | 0.08 | 85 | 1007.0 |
| 20260506203139 | 17 | 329 | 1.6 | 14.5 | 0.03 | 0.05 | 0.05 | 82 | 1006.9 |
| 20260506201547 | 17 | 96 | 3.2 | 14.5 | 0.05 | 0.05 | 0.05 | 81 | 1006.8 |
| 20260506200051 | 17 | 297 | 3.2 | 6.4 | 0.05 | 0.05 | 0.05 | 80 | 1006.6 |
| 20260506194549 | 18 | 0 | 1.6 | 20.9 | 0.03 | 0.03 | 0.03 | 79 | 1006.9 |
| 20260506193049 | 18 | 303 | 3.2 | 9.7 | 0.03 | 0.03 | 0.03 | 75 | 1007.0 |
| 20260506191551 | 19 | 94 | 1.6 | 22.5 | 0.00 | 0.00 | 0.00 | 72 | 1006.9 |
| 20260506190048 | 20 | 15 | 3.2 | 14.5 | 0.00 | 0.00 | 0.00 | 67 | 1006.8 |
| 20260506184556 | 20 | 133 | 3.2 | 14.5 | 0.00 | 0.00 | 0.00 | 65 | 1006.8 |
| 20260506183049 | 21 | 163 | 6.4 | 16.1 | 0.00 | 0.00 | 0.00 | 63 | 1007.0 |
| 20260506181546 | 21 | 335 | 4.8 | 16.1 | 0.00 | 0.00 | 0.00 | 62 | 1007.0 |
| 20260506180056 | 21 | 124 | 6.4 | 20.9 | 0.00 | 0.00 | 0.00 | 62 | 1007.2 |
| 20260506174604 | 22 | 0 | 3.2 | 12.9 | 0.00 | 0.00 | 0.00 | 62 | 1007.3 |
| 20260506173054 | 21 | 345 | 3.2 | 12.9 | 0.00 | 0.00 | 0.00 | 64 | 1007.4 |
| 20260506171548 | 21 | 272 | 3.2 | 19.3 | 0.00 | 0.00 | 0.00 | 64 | 1007.4 |
| 20260506170051 | 21 | 186 | 8.0 | 22.5 | 0.00 | 0.00 | 0.00 | 63 | 1007.6 |
| 20260506164554 | 21 | 318 | 3.2 | 12.9 | 0.00 | 0.00 | 0.00 | 64 | 1007.8 |
| 20260506163123 | 21 | 323 | 4.8 | 20.9 | 0.00 | 0.00 | 0.00 | 64 | 1007.7 |
| 20260506161553 | 21 | 351 | 4.8 | 16.1 | 0.00 | 0.00 | 0.00 | 64 | 1008.1 |
| 20260506160055 | 21 | 23 | 3.2 | 19.3 | 0.00 | 0.00 | 0.00 | 63 | 1008.6 |
| 20260506154557 | 21 | 97 | 4.8 | 19.3 | 0.00 | 0.00 | 0.00 | 62 | 1008.7 |
| 20260506153043 | 22 | 339 | 4.8 | 11.3 | 0.00 | 0.00 | 0.00 | 61 | 1009.0 |
| 20260506151558 | 22 | 22 | 3.2 | 19.3 | 0.00 | 0.00 | 0.00 | 62 | 1008.9 |
| 20260506150050 | 21 | 58 | 4.8 | 14.5 | 0.00 | 0.00 | 0.00 | 64 | 1009.2 |
| 20260506144558 | 21 | 115 | 3.2 | 14.5 | 0.00 | 0.00 | 0.00 | 65 | 1009.1 |
| 20260506143110 | 20 | 25 | 6.4 | 14.5 | 0.00 | 0.00 | 0.00 | 66 | 1009.1 |
| 20260506141551 | 20 | 295 | 1.6 | 16.1 | 0.00 | 0.00 | 0.00 | 68 | 1009.0 |
| 20260506140049 | 19 | 44 | 1.6 | 11.3 | 0.00 | 0.00 | 0.00 | 70 | 1009.3 |
| 20260506134549 | 18 | 0 | 0.0 | 14.5 | 0.00 | 0.00 | 0.00 | 72 | 1009.4 |
| 20260506133054 | 18 | 0 | 3.2 | 11.3 | 0.00 | 0.00 | 0.00 | 73 | 1009.9 |
| 20260506131551 | 18 | 134 | 0.0 | 11.3 | 0.00 | 0.00 | 0.00 | 74 | 1009.9 |
| 20260506130043 | 18 | 250 | 3.2 | 14.5 | 0.00 | 0.00 | 0.00 | 75 | 1009.7 |
| 20260506124549 | 17 | 307 | 1.6 | 9.7 | 0.00 | 0.00 | 0.00 | 77 | 1009.8 |
| 20260506123043 | 16 | 22 | 3.2 | 12.9 | 0.00 | 0.00 | 0.00 | 79 | 1010.0 |
| 20260506121554 | 16 | 293 | 1.6 | 12.9 | 0.00 | 0.00 | 0.00 | 80 | 1009.9 |
| 20260506120044 | 16 | 30 | 3.2 | 11.3 | 0.00 | 0.00 | 0.00 | 81 | 1010.2 |
| 20260506114552 | 16 | 345 | 1.6 | 17.7 | 0.00 | 0.00 | 0.00 | 81 | 1010.2 |
| 20260506113048 | 16 | 303 | 0.0 | 8.0 | 0.00 | 0.00 | 0.00 | 81 | 1010.5 |
| 20260506111542 | 16 | 63 | 0.0 | 16.1 | 0.00 | 0.00 | 0.00 | 81 | 1010.4 |
| 20260506104547 | 15 | 0 | 1.6 | 11.3 | 0.00 | 0.00 | 0.00 | 82 | 1010.2 |
| 20260506103044 | 15 | 107 | 1.6 | 14.5 | 0.00 | 0.00 | 0.00 | 82 | 1010.3 |
| 20260506101603 | 15 | 103 | 1.6 | 9.7 | 0.00 | 0.00 | 0.00 | 82 | 1010.2 |
| 20260506100052 | 15 | 59 | 1.6 | 9.7 | 0.00 | 0.00 | 0.00 | 82 | 1010.1 |
| 20260506094558 | 15 | 91 | 0.0 | 6.4 | 0.00 | 0.00 | 0.00 | 82 | 1010.0 |
| 20260506093053 | 15 | 0 | 0.0 | 9.7 | 0.00 | 0.00 | 0.00 | 81 | 1010.0 |
| 20260506091548 | 15 | 105 | 0.0 | 8.0 | 0.00 | 0.00 | 0.00 | 81 | 1010.1 |
| 20260506090105 | 15 | 98 | 1.6 | 8.0 | 0.00 | 0.00 | 0.00 | 81 | 1010.1 |
| 20260506084552 | 15 | 98 | 1.6 | 9.7 | 0.00 | 0.00 | 0.00 | 80 | 1010.2 |
| 20260506083046 | 15 | 340 | 1.6 | 8.0 | 0.00 | 0.00 | 0.00 | 79 | 1010.2 |
| 20260506081549 | 16 | 281 | 1.6 | 9.7 | 0.00 | 0.00 | 0.00 | 79 | 1010.0 |